This is the latest recevied weather packets stored in our database for station/object KD5UMO-1. If no packets are shown the sender has not sent any weather packets the latest 10 day(s).
| Time | Temp. | Humidity | Pressure | Rain* | Wind** | Luminosity | Snow |
|---|---|---|---|---|---|---|---|
| 1777755101 | 25° C | 32% | 1020.2 hPa | 0 mm | - | 678 W/m² | - |
| 1777754798 | 25° C | 35% | 1020 hPa | 0 mm | - | 692 W/m² | - |
| 1777754495 | 25° C | 32% | 1020.1 hPa | 0 mm | - | 702 W/m² | - |
| 1777754192 | 24.44° C | 32% | 1020.2 hPa | 0 mm | - | 715 W/m² | - |
| 1777753890 | 25° C | 35% | 1020.4 hPa | 0 mm | - | 727 W/m² | - |
| 1777753584 | 25° C | 34% | 1020.2 hPa | 0 mm | - | 734 W/m² | - |
| 1777753283 | 25° C | 34% | 1020.5 hPa | 0 mm | - | 743 W/m² | - |
| 1777752979 | 23.89° C | 35% | 1020.4 hPa | 0 mm | - | 757 W/m² | - |
| 1777752676 | 23.89° C | 36% | 1020.4 hPa | 0 mm | - | 768 W/m² | - |
| 1777752372 | 23.89° C | 35% | 1020.5 hPa | 0 mm | - | 778 W/m² | - |
| 1777752070 | 24.44° C | 35% | 1020.6 hPa | 0 mm | - | 799 W/m² | - |
| 1777751768 | 25° C | 33% | 1020.7 hPa | 0 mm | - | 800 W/m² | - |
| 1777751463 | 24.44° C | 33% | 1020.7 hPa | 0 mm | - | 810 W/m² | - |
| 1777751160 | 23.89° C | 34% | 1020.8 hPa | 0 mm | - | 815 W/m² | - |
| 1777750856 | 25° C | 33% | 1020.7 hPa | 0 mm | - | 826 W/m² | - |
| 1777750553 | 24.44° C | 33% | 1020.8 hPa | 0 mm | - | 836 W/m² | - |
| 1777750244 | 23.89° C | 37% | 1020.8 hPa | 0 mm | - | 844 W/m² | - |
| 1777749940 | 23.89° C | 35% | 1021 hPa | 0 mm | - | 851 W/m² | - |
| 1777749638 | 23.89° C | 34% | 1021.1 hPa | 0 mm | - | 855 W/m² | - |
| 1777749335 | 24.44° C | 36% | 1021 hPa | 0 mm | - | 858 W/m² | - |
| 1777749032 | 24.44° C | 33% | 1021.1 hPa | 0 mm | - | 865 W/m² | - |
| 1777748729 | 23.33° C | 35% | 1021.1 hPa | 0 mm | - | 867 W/m² | - |
| 1777748426 | 23.89° C | 32% | 1021.2 hPa | 0 mm | - | 869 W/m² | - |
| 1777748121 | 23.89° C | 35% | 1021.4 hPa | 0 mm | - | 875 W/m² | - |
| 1777747818 | 23.89° C | 35% | 1021.2 hPa | 0 mm | - | 878 W/m² | - |
* Rain latest hour (hover to see other rain measurements)
** Current wind speed in m/s (hover to see current wind gust speed)